Regional Weather Roundup
Issued by NWS Sioux Falls, SD

Home | Current Version | Previous Version | Graphics & Text | Print | Product List | Glossary On
Versions: 1 2 3 4 5 6 7 8 9 10 11 12 13 14 15 16 17 18 19 20 21 22 23 24 25 26 27 28 29 30 31 32 33 34 35 36 37 38 39 40 41 42 43 44 45 46 47 48 49 50
000
ASUS43 KFSD 270902
RWRFSD

WEATHER ROUNDUP FOR SE SOUTH DAKOTA/SW MINNESOTA/NW IOWA
NATIONAL WEATHER SERVICE SIOUX FALLS SD
400 AM CDT WED JUL 27 2016

NOTE: "FAIR" INDICATES FEW OR NO CLOUDS BELOW 12,000 FEET WITH NO
SIGNIFICANT WEATHER AND OR OBSTRUCTIONS TO VISIBILITY.


SDZ038>040-050-052>070-271000-
SOUTHEAST SOUTH DAKOTA

CITY           SKY/WX    TMP DP  RH WIND       PRES   REMARKS
BROOKINGS      CLOUDY    69  65  86 S6        29.94F
CHAMBERLAIN    MOCLDY    66  63  88 W6        30.00R
HURON          CLOUDY    69  66  90 NW18      29.93R
MADISON        FAIR      68  68 100 S7        29.95F
MITCHELL       CLOUDY    72  62  71 W6        29.97R
SIOUX FALLS    CLOUDY    75  63  66 SW14G25   29.94S
WINNER         FAIR      65  58  78 SW6       30.01R
YANKTON        CLOUDY    72  63  73 S3        29.91R
$$

MNZ071-072-080-081-089-090-097-098-271000-
SOUTHWEST MINNESOTA

CITY           SKY/WX    TMP DP  RH WIND       PRES   REMARKS
FAIRMONT       CLOUDY    70  64  83 S6        29.99S
JACKSON        CLOUDY    72  63  73 SW7       30.00F
LUVERNE        CLOUDY    68  64  88 S6        29.98S
MARSHALL       CLOUDY    71  67  87 SE8       29.94F
MONTEVIDEO     CLOUDY    70  66  88 S5        29.96F
PIPESTONE      CLOUDY    72  64  78 S10       29.96F
REDWOOD FALLS  MOCLDY    72  67  84 S8        29.96F
TRACY          CLOUDY    72  68  87 S8        29.96F
WINDOM         CLOUDY    72  64  78 S5        29.99S
WORTHINGTON    CLOUDY    71  66  84 S8        30.00S
$$

IAZ001>003-012>014-020>022-031-032-NEZ013-014-SDZ071-271000-
NORTHWEST IOWA

CITY           SKY/WX    TMP DP  RH WIND       PRES   REMARKS
CHEROKEE       CLOUDY    67  66  99 S7        29.99F
DENISON        MOCLDY    66  64  94 CALM      30.00F
ESTHERVILLE    CLOUDY    65  65 100 S7        30.00S
LE MARS        CLOUDY    70  66  88 S7        29.96F
SHELDON        CLOUDY    70  66  88 S8        29.97S
SIOUX CITY     CLOUDY    73  66  78 S8        29.96F
SPENCER        MOCLDY    66  64  93 S7        29.99F
STORM LAKE     PTCLDY    66  64  94 S6        30.02F
$$

ABBREVIATIONS USED IN REMARKS
   TC - TEMPERATURE IN CELSIUS
  WCI - WIND CHILL INDEX
   HX - HEAT INDEX
  VSB - VISIBILITY





USA.gov is the U.S. government's official web portal to all federal, state and local government web resources and services.